| time (UTC) | temp C | wind direction | speed KPH | gust KPH | rain 1hr cm | rain 24hr cm | rain mn cm | humidity % | barometer mb |
| 20260506044526 | 15 | 268 | 11.3 | 0.0 | 0.00 | 0.00 | 0.00 | 35 | 1020.6 |
| 20260506043025 | 17 | 262 | 11.3 | 0.0 | 0.00 | 0.00 | 0.00 | 30 | 1020.0 |
| 20260506041525 | 18 | 246 | 14.5 | 0.0 | 0.00 | 0.00 | 0.00 | 26 | 1020.6 |
| 20260506040026 | 17 | 258 | 9.7 | 0.0 | 0.00 | 0.00 | 0.00 | 27 | 1020.2 |
| 20260506034529 | 18 | 205 | 12.9 | 0.0 | 0.00 | 0.00 | 0.00 | 28 | 1019.7 |
| 20260506033023 | 18 | 245 | 16.1 | 0.0 | 0.00 | 0.00 | 0.00 | 28 | 1019.7 |
| 20260506031523 | 17 | 242 | 11.3 | 0.0 | 0.00 | 0.00 | 0.00 | 35 | 1019.2 |
| 20260506030035 | 17 | 260 | 9.7 | 0.0 | 0.00 | 0.00 | 0.00 | 38 | 1019.1 |
| 20260506024545 | 17 | 269 | 8.0 | 0.0 | 0.00 | 0.00 | 0.00 | 38 | 1018.6 |
| 20260506023021 | 17 | 271 | 8.0 | 0.0 | 0.00 | 0.00 | 0.00 | 37 | 1018.5 |
| 20260506021524 | 18 | 285 | 11.3 | 0.0 | 0.00 | 0.00 | 0.00 | 36 | 1018.8 |
| 20260506020022 | 18 | 289 | 14.5 | 0.0 | 0.00 | 0.00 | 0.00 | 35 | 1018.3 |
| 20260506014520 | 18 | 284 | 19.3 | 0.0 | 0.00 | 0.00 | 0.00 | 35 | 1018.2 |
| 20260506013033 | 20 | 286 | 22.5 | 0.0 | 0.00 | 0.00 | 0.00 | 34 | 1018.2 |
| 20260506011520 | 20 | 284 | 24.1 | 0.0 | 0.00 | 0.00 | 0.00 | 32 | 1017.8 |
| 20260506010024 | 20 | 302 | 17.7 | 0.0 | 0.00 | 0.00 | 0.00 | 34 | 1017.8 |
| 20260506004518 | 20 | 298 | 20.9 | 0.0 | 0.00 | 0.00 | 0.00 | 34 | 1017.8 |
| 20260506003019 | 20 | 303 | 17.7 | 0.0 | 0.00 | 0.00 | 0.00 | 33 | 1017.4 |
| 20260506001520 | 21 | 248 | 20.9 | 0.0 | 0.00 | 0.00 | 0.00 | 29 | 1017.4 |
| 20260506000017 | 21 | 207 | 30.6 | 0.0 | 0.00 | 0.00 | 0.00 | 29 | 1017.4 |
| 20260505234517 | 21 | 205 | 27.4 | 0.0 | 0.00 | 0.00 | 0.00 | 29 | 1017.6 |
| 20260505233020 | 21 | 213 | 32.2 | 0.0 | 0.00 | 0.00 | 0.00 | 30 | 1017.8 |
| 20260505231516 | 21 | 207 | 40.2 | 0.0 | 0.00 | 0.00 | 0.00 | 29 | 1017.1 |
| 20260505230033 | 21 | 226 | 38.6 | 0.0 | 0.00 | 0.00 | 0.00 | 29 | 1017.1 |
| 20260505224515 | 22 | 227 | 45.1 | 0.0 | 0.00 | 0.00 | 0.00 | 27 | 1016.8 |
| 20260505223015 | 22 | 206 | 41.8 | 0.0 | 0.00 | 0.00 | 0.00 | 25 | 1017.0 |
| 20260505221514 | 22 | 227 | 40.2 | 0.0 | 0.00 | 0.00 | 0.00 | 22 | 1016.9 |
| 20260505220014 | 22 | 258 | 43.5 | 0.0 | 0.00 | 0.00 | 0.00 | 23 | 1016.7 |
| 20260505214513 | 23 | 246 | 32.2 | 0.0 | 0.00 | 0.00 | 0.00 | 22 | 1017.4 |
| 20260505213011 | 22 | 210 | 41.8 | 0.0 | 0.00 | 0.00 | 0.00 | 23 | 1017.9 |
| 20260505211509 | 22 | 223 | 40.2 | 0.0 | 0.00 | 0.00 | 0.00 | 23 | 1018.3 |
| 20260505210008 | 22 | 232 | 33.8 | 0.0 | 0.00 | 0.00 | 0.00 | 25 | 1018.5 |
| 20260505204506 | 21 | 241 | 37.0 | 0.0 | 0.00 | 0.00 | 0.00 | 27 | 1018.7 |
| 20260505203005 | 22 | 261 | 32.2 | 0.0 | 0.00 | 0.00 | 0.00 | 26 | 1018.9 |
| 20260505201506 | 21 | 239 | 32.2 | 0.0 | 0.00 | 0.00 | 0.00 | 29 | 1019.0 |
| 20260505200003 | 21 | 219 | 35.4 | 0.0 | 0.00 | 0.00 | 0.00 | 28 | 1019.2 |
| 20260505194613 | 20 | 226 | 37.0 | 0.0 | 0.00 | 0.00 | 0.00 | 29 | 1019.7 |
| 20260505193058 | 20 | 240 | 38.6 | 0.0 | 0.00 | 0.00 | 0.00 | 30 | 1019.7 |
| 20260505191600 | 20 | 253 | 37.0 | 0.0 | 0.00 | 0.00 | 0.00 | 32 | 1019.7 |
| 20260505190056 | 20 | 225 | 37.0 | 0.0 | 0.00 | 0.00 | 0.00 | 31 | 1019.6 |
| 20260505184554 | 20 | 223 | 38.6 | 0.0 | 0.00 | 0.00 | 0.00 | 34 | 1019.5 |
| 20260505183100 | 20 | 228 | 38.6 | 0.0 | 0.00 | 0.00 | 0.00 | 37 | 1019.3 |
| 20260505181551 | 20 | 246 | 37.0 | 0.0 | 0.00 | 0.00 | 0.00 | 38 | 1019.9 |
| 20260505180050 | 19 | 208 | 32.2 | 0.0 | 0.00 | 0.00 | 0.00 | 39 | 1019.7 |
| 20260505174550 | 19 | 263 | 25.7 | 0.0 | 0.00 | 0.00 | 0.00 | 39 | 1020.0 |
| 20260505173049 | 18 | 215 | 20.9 | 0.0 | 0.00 | 0.00 | 0.00 | 41 | 1020.1 |
| 20260505171544 | 18 | 246 | 17.7 | 0.0 | 0.00 | 0.00 | 0.00 | 42 | 1020.1 |
| 20260505170043 | 18 | 223 | 16.1 | 0.0 | 0.00 | 0.00 | 0.00 | 42 | 1020.3 |
| 20260505164551 | 17 | 197 | 14.5 | 0.0 | 0.00 | 0.00 | 0.00 | 42 | 1020.7 |
| 20260505163048 | 17 | 271 | 4.8 | 0.0 | 0.00 | 0.00 | 0.00 | 42 | 1020.7 |
| 20260505161543 | 17 | 270 | 6.4 | 0.0 | 0.00 | 0.00 | 0.00 | 43 | 1020.7 |
| 20260505153049 | 16 | 260 | 11.3 | 0.0 | 0.00 | 0.00 | 0.00 | 43 | 1020.6 |
| 20260505151543 | 16 | 275 | 14.5 | 0.0 | 0.00 | 0.00 | 0.00 | 43 | 1020.1 |
| 20260505124520 | 16 | 257 | 11.3 | 0.0 | 0.00 | 0.00 | 0.00 | 41 | 1019.8 |
| 20260505123014 | 16 | 245 | 6.4 | 0.0 | 0.00 | 0.00 | 0.00 | 45 | 1019.5 |
| 20260505121513 | 15 | 263 | 8.0 | 0.0 | 0.00 | 0.00 | 0.00 | 46 | 1019.0 |
| 20260505120012 | 15 | 189 | 6.4 | 0.0 | 0.00 | 0.00 | 0.00 | 51 | 1018.9 |
| 20260505114517 | 15 | 159 | 1.6 | 0.0 | 0.00 | 0.00 | 0.00 | 51 | 1018.8 |
| 20260505113007 | 16 | 159 | 4.8 | 0.0 | 0.00 | 0.00 | 0.00 | 47 | 1019.0 |
| 20260505111508 | 16 | 148 | 4.8 | 0.0 | 0.00 | 0.00 | 0.00 | 46 | 1018.8 |
| 20260505101503 | 16 | 296 | 9.7 | 0.0 | 0.00 | 0.00 | 0.00 | 44 | 1018.6 |
| 20260505100003 | 16 | 296 | 11.3 | 0.0 | 0.00 | 0.00 | 0.00 | 44 | 1018.6 |
| 20260505094501 | 16 | 295 | 11.3 | 0.0 | 0.00 | 0.00 | 0.00 | 44 | 1018.5 |
| 20260505093107 | 16 | 300 | 11.3 | 0.0 | 0.00 | 0.00 | 0.00 | 45 | 1018.6 |
| 20260505091603 | 16 | 289 | 9.7 | 0.0 | 0.00 | 0.00 | 0.00 | 45 | 1018.5 |
| 20260505090100 | 16 | 292 | 12.9 | 0.0 | 0.00 | 0.00 | 0.00 | 44 | 1018.7 |
| 20260505084554 | 16 | 276 | 16.1 | 0.0 | 0.00 | 0.00 | 0.00 | 43 | 1018.9 |
| 20260505083054 | 17 | 289 | 16.1 | 0.0 | 0.00 | 0.00 | 0.00 | 43 | 1018.7 |
| 20260505081559 | 17 | 298 | 14.5 | 0.0 | 0.00 | 0.00 | 0.00 | 42 | 1019.4 |
| 20260505080049 | 17 | 289 | 14.5 | 0.0 | 0.00 | 0.00 | 0.00 | 42 | 1019.1 |
| 20260505074604 | 17 | 273 | 22.5 | 0.0 | 0.00 | 0.00 | 0.00 | 41 | 1019.3 |
| 20260505073051 | 17 | 270 | 20.9 | 0.0 | 0.00 | 0.00 | 0.00 | 40 | 1018.8 |
| 20260505071542 | 17 | 262 | 20.9 | 0.0 | 0.00 | 0.00 | 0.00 | 40 | 1019.3 |
| 20260505070040 | 17 | 277 | 14.5 | 0.0 | 0.00 | 0.00 | 0.00 | 40 | 1019.1 |
| 20260505064539 | 17 | 287 | 12.9 | 0.0 | 0.00 | 0.00 | 0.00 | 40 | 1019.2 |
| 20260505063041 | 18 | 303 | 16.1 | 0.0 | 0.00 | 0.00 | 0.00 | 39 | 1019.6 |
| 20260505061549 | 18 | 281 | 14.5 | 0.0 | 0.00 | 0.00 | 0.00 | 38 | 1020.4 |
| 20260505060032 | 18 | 277 | 14.5 | 0.0 | 0.00 | 0.00 | 0.00 | 37 | 1020.1 |